PHLIPHOG

Guest
Details From PHLI - Lihue - Kauai
To PHOG - Kahului
Flight Number -
Tags Generated
Created
Modified
Stats Distance 175 nm / 324 km
Max Altitude 0 ft / 0 m
Waypoints 2
Social Downloads 3
Likes 0
Share VATSIM

Download

Looking for another format? Having issues loading an existing format? Contact us
Advertisement - Login to hide

Notes

Generated

Route

PHLI PHOG

ID Type Via Altitude Latitude Longitude Leg Dist Tot Dist Heading (true) Name
O PHLI APT - 0 ft / 0 m 21.97291˚ -159.34882˚ - 0 nm - -
O PHOG APT - 0 ft / 0 m 20.89802˚ -156.43710˚ 175 nm 175 nm 111° / 112° -

Altitude Profile

Advertisement - Login to hide

Weather


0- 5 10 15 20 25 30 35+ Temperature / ° C

Clouds and Precipitation
Forecast for 2018-05-26 00:00 UTC. Updated an hour ago

Ground ~20,000 ft ~40,000 ft Winds

PHLI

Details ICAO PHLI (LIH)
Name Lihue - Kauai
Region USA (Hawaii)
Timezone Pacific/Honolulu (UTC-10.0)
Stats Elevation 153 ft / 47 m (AMSL)
Location 21.975984° -159.338958°
Runways 2
Magnetic Variation 9.442° E

METAR

PHLI 252353Z 05017KT 10SM FEW017 SCT050 BKN060 27/21 A3014

Decode

TAF

PHLI 252335Z 2600/2624 06015KT P6SM VCSH FEW015 SCT025 BKN060 TEMPO 2600/2604 BKN025

Decode

Departure Runways

ID Width Length Bearing (true) Bearing (mag) Surface Threshold Offset Overrun Length
03 151 ft / 46 m 6,510 ft / 1,984 m 44.84° 35.40° Asphalt 0 ft / 0 m 230 ft / 70 m
17 151 ft / 46 m 6,529 ft / 1,990 m 180.01° 170.57° Asphalt 0 ft / 0 m 200 ft / 61 m
21 151 ft / 46 m 6,510 ft / 1,984 m 224.84° 215.40° Asphalt 203 ft / 62 m 92 ft / 28 m
35 151 ft / 46 m 6,529 ft / 1,990 m 0.01° 350.57° Asphalt 0 ft / 0 m 213 ft / 65 m

PHOG

Details ICAO PHOG (OGG)
Name Kahului
Region USA (Hawaii)
Timezone Pacific/Honolulu (UTC-10.0)
Stats Elevation 54 ft / 16 m (AMSL)
Location 20.898975° -156.430460°
Runways 2
Magnetic Variation 9.514° E

METAR

PHOG 252354Z 04023G30KT 10SM FEW045 SCT050 27/21 A3006 RMK ATIS V

Decode

TAF

PHOG 252335Z 2600/2624 04018G28KT P6SM SCT050 SCT250 FM260600 05010G18KT P6SM SCT030 SCT050 BKN250 FM262000 05015G25KT P6SM SCT050 SCT250 AMD LTD TO VIS AND WIND 2609/2616

Decode

Destination Runways

ID Width Length Bearing (true) Bearing (mag) Surface Threshold Offset Overrun Length
02 150 ft / 46 m 7,013 ft / 2,138 m 34.81° 25.30° Asphalt 0 ft / 0 m 0 ft / 0 m
05 150 ft / 46 m 4,989 ft / 1,521 m 64.91° 55.40° Asphalt 0 ft / 0 m 0 ft / 0 m
20 150 ft / 46 m 7,013 ft / 2,138 m 214.81° 205.30° Asphalt 0 ft / 0 m 0 ft / 0 m
23 150 ft / 46 m 4,989 ft / 1,521 m 244.91° 235.40° Asphalt 0 ft / 0 m 0 ft / 0 m

Approach Navaids

Runway Type Ident Frequency Range Bearing (true) Bearing (mag) Slope Elevation
02 Localiser IOGG 110.10 MHz 18 nm / 33 km 34.81° 25.30° - 46 ft / 14 m (AMSL)
02 Glidescope IOGG 110.10 MHz 10 nm / 19 km 34.81° 25.30° 3.00° 46 ft / 14 m (AMSL)
02 DME IOGG 110.10 MHz 18 nm / 33 km - - - 46 ft / 14 m (AMSL)

Popular Alternatives